Location: Kerentrech
(47.7567°N, 3.3595°W)
Time: 02:04:09
(UTC+00:00)

Meteor 2-3 Rocket - Pass Details

Date: 17 February 2020
Orbit: 842 x 885 km, 81.3° (Epoch: 03 April)

Event Time Altitude Azimuth Distance (km) Brightness Sun altitude
Rises 04:57:14 0° 349° (NNW) 3,460 6.9 -24.1°
Reaches altitude 10° 04:59:41 10° 350° (N) 2,525 6.1 -23.7°
Maximum altitude 05:05:26 81° 79° (ENE) 892 3.8 -22.7°
Drops below altitude 10° 05:11:13 10° 166° (SSE) 2,532 6.3 -21.8°
Sets 05:13:40 0° 168° (SSE) 3,470 7.0 -21.4°
